Date String (YYYY-MM-DD hh:mm:ss) UTC,Instrument flags,Ambient pressure (hPa),Sample flow (lpm),Bypass flow (lpm),Sample temperature (°C),Ambient temperature (°C),ASC tube jacket temperature (°C),LED temperature (°C),Box temperature (°C),Sample RH (%),Span deviation,Mass concentration (μg/m³),Mass concentration (μg/m³),Mass concentration (μg/m³)
DateTimeUTC,F1_M11,P_M11,Q1_M11,Q2_M11,T1_M11,T2_M11,T3_M11,T4_M11,T5_M11,U1_M11,ZSPAN_M11,X2_M11,X0_M11,X1_M11
2022-07-16 07:00:00,,0832.6,5.00,0.00,31.1,28.7,00.0,39.5,32.1,35.0,0000.0,0005.06,0011.33,0004.24
2022-07-16 07:01:00,,0832.6,5.01,0.00,31.2,28.8,00.0,39.5,32.2,35.0,0000.0,0005.08,0011.32,0004.25
2022-07-16 07:02:00,,0832.6,4.99,0.00,31.4,28.8,00.0,39.5,32.4,34.6,0000.0,0005.10,0011.97,0004.26
2022-07-16 07:03:00,,0832.6,5.00,0.00,31.5,28.9,00.0,39.5,32.4,34.4,0000.0,0005.12,0012.06,0004.28
2022-07-16 07:04:00,,0832.6,4.99,0.00,31.6,28.5,00.0,39.5,32.4,34.3,0000.0,0005.12,0012.06,0004.30
2022-07-16 07:05:00,,0832.6,5.02,0.00,31.6,27.6,00.0,39.5,32.2,34.5,0000.0,0005.13,0012.14,0004.31
2022-07-16 07:06:00,,0832.6,4.99,0.00,31.5,27.2,00.0,39.4,32.1,34.8,0000.0,0005.13,0012.11,0004.32
2022-07-16 07:07:00,,0832.5,5.00,0.00,31.4,27.1,00.0,39.5,32.0,35.1,0000.0,0005.12,0012.21,0004.33
2022-07-16 07:08:00,,0832.4,5.00,0.00,31.4,27.2,00.0,39.5,32.0,35.4,0000.0,0005.13,0012.34,0004.33
2022-07-16 07:09:00,,0832.5,5.01,0.00,31.6,27.4,00.0,39.5,32.1,35.1,0000.0,0005.13,0011.79,0004.33
2022-07-16 07:10:00,,0832.5,4.99,0.00,31.8,27.6,00.0,39.5,32.2,34.4,0000.0,0005.13,0011.12,0004.34
2022-07-16 07:11:00,,0832.4,5.00,0.00,31.9,27.8,00.0,39.5,32.2,34.2,0000.0,0005.08,0010.72,0004.33
2022-07-16 07:12:00,,0832.4,5.00,0.00,32.0,27.9,00.0,39.5,32.2,34.1,0000.0,0005.06,0010.58,0004.34
2022-07-16 07:13:00,,0832.3,5.01,0.00,32.0,28.1,00.0,39.6,32.1,34.3,0000.0,0005.04,0010.09,0004.36
2022-07-16 07:14:00,,0832.3,5.00,0.00,31.9,28.3,00.0,39.7,32.2,34.2,0000.0,0005.09,0010.24,0004.38
2022-07-16 07:15:00,,0832.3,5.00,0.00,31.9,28.4,00.0,39.7,32.2,34.1,0000.0,0005.13,0010.35,0004.41
2022-07-16 07:16:00,,0832.3,4.99,0.00,31.9,28.5,00.0,39.8,32.2,34.1,0000.0,0005.18,0010.66,0004.45
2022-07-16 07:17:00,,0832.4,5.00,0.00,31.9,28.6,00.0,39.8,32.3,34.2,0000.0,0005.21,0010.74,0004.46
2022-07-16 07:18:00,,0832.4,5.00,0.00,31.8,28.7,00.0,39.9,32.3,34.3,0000.0,0005.23,0010.75,0004.48
2022-07-16 07:19:00,,0832.4,5.00,0.00,31.8,28.8,00.0,39.9,32.3,34.4,0000.0,0005.22,0010.45,0004.50
2022-07-16 07:20:00,,0832.3,5.01,0.00,31.8,28.9,00.0,39.9,32.4,34.3,0000.0,0005.26,0010.45,0004.54
2022-07-16 07:21:00,,0832.3,5.00,0.00,31.7,28.9,00.0,39.9,32.4,34.3,0000.0,0005.32,0010.55,0004.57
2022-07-16 07:22:00,,0832.3,5.00,0.00,31.7,28.2,00.0,39.9,32.3,34.0,0000.0,0005.34,0010.55,0004.60
2022-07-16 07:23:00,,0832.2,5.00,0.00,31.6,27.5,00.0,39.8,32.2,33.9,0000.0,0005.40,0010.62,0004.64
2022-07-16 07:24:00,,0832.2,4.98,0.00,31.5,27.2,00.0,39.8,32.1,34.2,0000.0,0005.42,0010.42,0004.67
2022-07-16 07:25:00,,0832.1,5.01,0.00,31.4,27.1,00.0,39.7,31.9,34.8,0000.0,0005.39,0009.48,0004.69
2022-07-16 07:26:00,,0832.1,5.00,0.00,31.2,27.3,00.0,39.7,31.9,35.1,0000.0,0005.42,0009.47,0004.71
2022-07-16 07:27:00,,0832.1,5.00,0.00,31.3,27.4,00.0,39.7,32.0,34.8,0000.0,0005.45,0009.24,0004.71
2022-07-16 07:28:00,,0832.1,5.01,0.00,31.4,27.6,00.0,39.6,32.1,34.2,0000.0,0005.44,0009.19,0004.71
2022-07-16 07:29:00,,0832.1,5.00,0.00,31.5,27.8,00.0,39.6,32.1,34.3,0000.0,0005.45,0009.17,0004.74
2022-07-16 07:30:00,,0832.1,4.99,0.00,31.5,28.0,00.0,39.6,32.1,34.4,0000.0,0005.46,0009.21,0004.75
2022-07-16 07:31:00,,0831.9,5.02,0.00,31.5,28.1,00.0,39.6,32.1,34.5,0000.0,0005.45,0009.13,0004.77
2022-07-16 07:32:00,,0831.9,5.00,0.00,31.4,28.3,00.0,39.6,32.1,34.7,0000.0,0005.46,0009.22,0004.78
2022-07-16 07:33:00,,0831.9,5.00,0.00,31.4,28.4,00.0,39.7,32.1,34.8,0000.0,0005.49,0009.38,0004.79
2022-07-16 07:34:00,,0831.8,5.00,0.00,31.4,28.5,00.0,39.7,32.1,34.8,0000.0,0005.54,0009.47,0004.80
2022-07-16 07:35:00,,0831.8,5.01,0.00,31.4,28.6,00.0,39.7,32.2,34.8,0000.0,0005.53,0009.37,0004.80
2022-07-16 07:36:00,,0831.7,5.00,0.00,31.3,28.7,00.0,39.7,32.2,34.9,0000.0,0005.59,0010.48,0004.82
2022-07-16 07:37:00,,0831.7,5.00,0.00,31.3,28.8,00.0,39.7,32.2,35.0,0000.0,0005.62,0011.07,0004.85
2022-07-16 07:38:00,,0831.7,5.01,0.00,31.3,28.9,00.0,39.7,32.3,35.1,0000.0,0005.62,0011.14,0004.86
2022-07-16 07:39:00,,0831.7,4.99,0.00,31.5,28.9,00.0,39.7,32.4,34.8,0000.0,0005.62,0011.23,0004.89
2022-07-16 07:40:00,,0831.7,5.00,0.00,31.6,29.0,00.0,39.7,32.5,34.4,0000.0,0005.64,0011.13,0004.89
2022-07-16 07:41:00,,0831.7,5.02,0.00,31.7,28.4,00.0,39.7,32.5,34.2,0000.0,0005.68,0011.29,0004.90
2022-07-16 07:42:00,,0831.7,4.99,0.00,31.7,27.9,00.0,39.6,32.4,34.2,0000.0,0005.74,0011.43,0004.92
2022-07-16 07:43:00,,0831.7,5.00,0.00,31.7,27.7,00.0,39.6,32.2,34.5,0000.0,0005.74,0011.36,0004.92
2022-07-16 07:44:00,,0831.7,4.99,0.00,31.5,27.7,00.0,39.7,32.1,34.3,0000.0,0005.69,0011.26,0004.90
2022-07-16 07:45:00,,0831.7,5.00,0.00,31.4,27.8,00.0,39.7,32.0,34.3,0000.0,0005.60,0011.24,0004.84
2022-07-16 07:46:00,,0831.6,5.00,0.00,31.4,27.9,00.0,39.7,32.0,34.3,0000.0,0005.57,0011.46,0004.79
2022-07-16 07:47:00,,0831.6,5.01,0.00,31.3,28.1,00.0,39.7,32.1,34.4,0000.0,0005.50,0010.39,0004.71
2022-07-16 07:48:00,,0831.6,4.99,0.00,31.3,28.2,00.0,39.7,32.1,34.5,0000.0,0005.42,0010.40,0004.64
2022-07-16 07:49:00,,0831.6,5.00,0.00,31.2,28.4,00.0,39.7,32.1,34.5,0000.0,0005.33,0010.37,0004.57
2022-07-16 07:50:00,,0831.6,5.00,0.00,31.2,28.5,00.0,39.7,32.2,34.7,0000.0,0005.28,0010.18,0004.51
2022-07-16 07:51:00,,0831.5,5.00,0.00,31.2,28.6,00.0,39.7,32.2,34.7,0000.0,0005.22,0010.02,0004.46
2022-07-16 07:52:00,,0831.5,5.00,0.00,31.1,28.7,00.0,39.7,32.2,34.8,0000.0,0005.12,0009.71,0004.40
2022-07-16 07:53:00,,0831.5,5.00,0.00,31.1,28.8,00.0,39.7,32.2,34.9,0000.0,0005.03,0009.98,0004.33
2022-07-16 07:54:00,,0831.5,5.01,0.00,31.1,28.9,00.0,39.7,32.3,34.9,0000.0,0004.98,0010.00,0004.28
2022-07-16 07:55:00,,0831.5,5.00,0.00,31.1,28.9,00.0,39.7,32.3,34.9,0000.0,0004.94,0009.87,0004.25
2022-07-16 07:56:00,,0831.4,4.99,0.00,31.1,28.7,00.0,39.6,32.3,34.9,0000.0,0004.92,0009.71,0004.24
2022-07-16 07:57:00,,0831.3,5.01,0.00,31.1,28.1,00.0,39.5,32.2,34.9,0000.0,0004.91,0009.44,0004.25
2022-07-16 07:58:00,,0831.2,4.99,0.00,31.0,27.7,00.0,39.5,32.1,35.1,0000.0,0004.95,0009.49,0004.28
2022-07-16 07:59:00,,0831.2,5.00,0.00,31.1,27.7,00.0,39.5,32.1,35.1,0000.0,0004.95,0009.09,0004.28
